7 * 24
多渠道服务支持
STARLINK-32693 是 SpaceX Starlink 卫星互联网项目中的一颗低轨道卫星,属于第三代 Starlink 卫星(v1.5 或 v2 版本)。该卫星由猎鹰 9 号火箭发射入轨,旨在为全球提供高速、低延迟的宽带互联网服务。它运行在约 550 公里的高度,配备先进通信设备和激光链路,支持星间通信。Starlink 计划部署数千颗卫星,以构建覆盖全球的卫星网络,尤其服务于偏远地区。STARLINK-32693 的运行有助于提升网络容量和连接稳定性。
美国
(US)
| 数据来源 | 国际轨道数据 |
| 星历时间: | 2025-11-06T22:59:35+0800 1天前 查看轨道信息 |
| 半长轴: | 6853.276km |
| 偏心率: | 0.0001949 |
| 轨道倾角: | 53.156° |
| 近地点辐角 | 88.946° |
| 升交点赤经 | 184.229° |
| 平近点角 | 271.176° |
| 近地点: | 473.805km |
| 远地点: | 476.477km |
| 周期: | 94.104分钟 |
| 每日圈数: | 15.302255 |